Orbital Elements at Epoch 2459000.5 (2020-May-31.0) TDB
Reference: JPL 22 (heliocentric ecliptic J2000)
Element | Value | Uncertainty (1-sigma) | Units |
e | .2003318333627747 | 2.9584e-08 | |
a | 2.386370066815769 | 8.6608e-09 | au |
q | 1.908304176248519 | 7.2737e-08 | au |
i | 4.124485408832721 | 3.548e-06 | deg |
node | 215.8291464536869 | 5.8273e-05 | deg |
peri | 31.20264936764275 | 5.9306e-05 | deg |
M | 319.9830177050428 | 1.1475e-05 | deg |
tp | 2459150.174201713490 (2020-Oct-27.67420171) | 4.3259e-05 | TDB |
period | 1346.49615055173 3.69 | 7.3302e-06 2.007e-08 | d yr |
n | .2673605861052697 | 1.4555e-09 | deg/d |
Q | 2.864435957383019 | 1.0396e-08 | au |
|
| | Orbit Determination Parameters
Additional Information
|